Location: Niedergestelen
(46.3129°N, 7.7822°E)
Time: 15:20:52
(UTC+00:00)

Cosmos 2228 Rocket - Pass Details

Date: 01 December 2020
Orbit: 618 x 652 km, 82.5° (Epoch: 27 January)

Event Time Altitude Azimuth Distance (km) Brightness Sun altitude
Rises 17:26:09 0° 172° (S) 2,948 6.6 -17.0°
Reaches altitude 10° 17:28:27 10° 166° (SSE) 2,039 5.7 -17.4°
Maximum altitude 17:32:47 47° 93° (E) 856 3.3 -18.1°
Enters shadow 17:34:25 32° 42° (NE) 1,105 3.9 -18.4°
